Regional Weather Roundup
Issued by NWS

Home | Current Version | Previous Version | Graphics & Text | Print | Product List | Glossary On
Versions: 1 2 3 4 5 6 7 8 9 10 11 12 13 14 15 16 17 18 19 20 21 22 23 24 25 26 27 28 29 30 31 32 33 34 35 36 37 38 39 40 41 42 43 44 45 46 47 48 49 50
825
ASUS43 KDMX 171001
RWRIA

WEATHER ROUNDUP FOR IOWA
NATIONAL WEATHER SERVICE DES MOINES IA
500 AM CDT THU AUG 17 2017

NOTE: "FAIR" INDICATES FEW OR NO CLOUDS BELOW 12,000 FEET WITH NO
SIGNIFICANT WEATHER AND/OR OBSTRUCTIONS TO VISIBILITY.

* - THESE STATIONS ARE NOT NWS STATIONS...THUS NOT UNDER NWS
QUALITY CONTROL.  THEY ALSO DO NOT REPORT WEATHER SUCH
AS PRECIPITATION OR FOG.

IAZ001>003-012>014-020>022-031>034-043>046-171100-
   NORTHWEST IOWA

CITY           SKY/WX    TMP DP  RH WIND       PRES   REMARKS
CARROLL *      CLOUDY    66  64  94 W14       29.76R
CHEROKEE *     CLOUDY    66  65  97 W8        29.75S
DENISON *      CLOUDY    64  64 100 W7        29.80S
LE MARS *      CLOUDY    66  63  88 W9        29.78R
ORANGE CITY *  CLOUDY    66  64  94 W12       29.77R
SHELDON *      CLOUDY    66  64  94 W9        29.73S
SIOUX CITY     CLOUDY    67  64  90 W9        29.79R
SPENCER        MOCLDY    66  64  93 W14       29.72R
STORM LAKE *   CLOUDY    66  64  94 W14       29.75S
$$

IAZ055>058-069>071-079>083-090>094-171100-
   SOUTHWEST IOWA

CITY           SKY/WX    TMP DP  RH WIND       PRES   REMARKS
ATLANTIC *     CLOUDY    66  63  88 SW7       29.83R
AUDUBON *      PTCLDY    64  61  88 W6        29.80S
CLARINDA *     CLEAR     61  61 100 SW5       29.87R
COUNCIL BLFS * CLOUDY    66  64  94 W8        29.85R
CRESTON *      CLEAR     63  63 100 W9        29.84R
HARLAN  *      CLOUDY    64  64 100 W12       29.85R
LAMONI         CLEAR     65  63  93 W12       29.83R
RED OAK *      CLEAR     63  61  94 SW8       29.85R
SHENANDOAH *     N/A    N/A N/A N/A SW7       29.87R
$$

IAZ047>049-059>061-072>074-084-171100-
   CENTRAL IOWA

CITY           SKY/WX    TMP DP  RH WIND       PRES   REMARKS
AMES           CLOUDY    66  65  96 W10       29.74R
ANKENY *       CLOUDY    68  63  83 SW9       29.76S
BOONE *        CLOUDY    66  64  94 SW10G17   29.73S
CHARITON *     CLEAR     66  63  88 W9        29.80R
DES MOINES     CLOUDY    67  63  87 W12       29.76S
GRINNELL*      MOCLDY    66  64  93 SW8       29.77R
KNOXVILLE *    PTCLDY    66  63  88 SW8       29.77R
NEWTON *       CLOUDY    66  64  94 SW8       29.77R
PELLA *        PTCLDY    67  64  87 W10       29.79R
PERRY *        CLOUDY    66  65  95 SW8       29.76S
$$

IAZ004>006-015-016-023>025-035-036-171100-
   NORTH CENTRAL IOWA

CITY           SKY/WX    TMP DP  RH WIND       PRES   REMARKS
ALGONA *       CLOUDY    66  66 100 W9        29.70S
CLARION *      CLOUDY    66  66 100 W12G17    29.70R
ESTHERVILLE    CLOUDY    65  64  97 W12G17    29.69R
FORT DODGE *   MOCLDY    64  63  94 W9        29.73R
MASON CITY     MOCLDY    66  63  90 W16G24    29.68S
FOREST CITY *  MOCLDY    66  64  94 SW8       29.67S
WEBSTER CITY * CLOUDY    66  64  94 W10G17    29.70R
IOWA FALLS *   CLOUDY    67  64  90 SW9       29.72S
$$

IAZ007>011-017>019-026>030-037>042-050>054-066-171100-
   NORTHEAST IOWA

CITY           SKY/WX    TMP DP  RH WIND       PRES   REMARKS
CHARLES CITY * CLOUDY    66  66 100 SW10G17   29.67S
CLINTON *      CLOUDY    71  70  96 S7        29.75F
DECORAH *      CLOUDY    66  64  94 SW9       29.66S
MONTICELLO *   PTCLDY    68  66  94 SW6       29.72S
OELWEIN *      CLOUDY    66  64  94 SW10G17   29.70S
$$

IAZ064-065-067-068-078-171100-
   EAST CENTRAL IOWA

CITY           SKY/WX    TMP DP  RH WIND       PRES   REMARKS
MUSCATINE *    CLOUDY    73  70  88 SW7       29.75S
$$

IAZ062-063-075>077-085>089-095>099-171100-
   SOUTHEAST IOWA

CITY           SKY/WX    TMP DP  RH WIND       PRES   REMARKS
BURLINGTON     MOCLDY    71  69  93 SW9       29.77S
FAIRFIELD *    CLEAR     72  70  94 SW7       29.76S
FORT MADISON * MOCLDY    72  68  88 SW10G16   29.79S
KEOKUK *       CLOUDY    72  66  83 SW13G18   29.79R
OSKALOOSA *      N/A     66  64  95 SW5       29.78R
OTTUMWA        PTCLDY    70  67  90 W9        29.78R
WASHINGTON *   PTCLDY    72  72 100 SW6       29.77R
$$

ABBREVIATIONS USED IN REMARKS
   TC - TEMPERATURES IN CELSIUS
  WCI - WIND CHILL INDEX
   HX - HEAT INDEX
  VSB - VISIBILITY
$$





USA.gov is the U.S. government's official web portal to all federal, state and local government web resources and services.